CZ-3B DEB, 40845

Orbit data source: Space-Track

CZ-3B DEB, 40845 is space debris in HEO originally from a launch on Mon, 19 Dec 2011 UTC launched from the Xichang Space Center, China (XSC). Debris objects in space refer to the collection of defunct objects orbiting the Earth. Examples of debris include non-operational satellites, rocket bodies, and fragments generated from explosions, collisions, or faulty payload assembly.

Loading next visibility...
Identifier
40845, 2011-077AA
Orbit
HEO
Last TLE update
12 hours ago
Origin
Manufacturer
CALT
Mission
Spacecraft
Bus & Motor
Unknown
Mass
Unknown
Launch date (UTC)
2011-12-19 (14 years ago)
Launch vehicle
Unknown
Launch site
Xichang Space Center, China (XSC)
Object type
Payload
Rocket body
Debris
Shape & HBR
Unknown
Radar Cross Section
Medium (>0.1 m² and <1 m²)

Expand to show TLE details & history

TLE from 12 hours ago
0 CZ-3B DEB
1 40845U 11077AA  25199.46348777  .00000999  00000-0  22361-2 0  9992
2 40845  22.0237 250.7188 7436908 350.7612   1.0839  2.02185566 85460
Epoch: 2025-07-18T11:07Z
TLE epoch observation values (Epoch: 2025-07-18T11:07:25.343Z)
Latitude
-0.00017°
Longitude
147.38513°
Altitude
431.984 km
Speed
10.098 km/s
True Right ascension
16h 43m 01s
True Declination
0° 00' 01"
Sunlit
Object was in full shadow at epoch
Visualization orbit readout
Latitude
-0.45623°
Longitude
146.10426°
Altitude
419.981 km
Speed
10.108 km/s
Apparent Right ascension
19h 22m 40s
Apparent Declination
-30° 08' 29"
Sunlit
Object is in full shadow
Visualization observer readout
Local Sidereal Time
11:46:53
Azimuth
101.439° ESE
Elevation
-36.256°
Doppler factor
1
Orbital elements
Apogee altitude
39,694.584 km
Perigee altitude
394.2 km
Semi-major axis
26,422.529 km
Eccentricity
0.74369
Inclination
22.0237°
RAAN
250.7188°
Arg. of periapsis
350.7612°
True anomaly
10.97254°
Mean anomaly
1.0839°
Eccentric anomaly
4.21783°
Mean motion
0.50534 °/min
Orbital period
712.4 mins
BSTAR
0.0022361
Loading maneuver chart data...
Loading SW <> Apogee altitude chart data...
Loading historical data...
Loading historical data...
Loading historical data...
Loading historical data...
Loading historical data...
Loading historical data...
Loading historical data...
|